Weather History for KTKC - January, 2013

Change the Weather History Date:

Friday, January 25, 2013

  Actual Average (KMML) Record (KMML)
Temperature  
Mean Temperature 10 °F -  
Max Temperature 21 °F 24 °F 55 °F (2002)
Min Temperature 0 °F 3 °F -22 °F (1961)
Degree Days  
Heating Degree Days 54    
Moisture  
Dew Point 4 °F    
Average Humidity 71    
Maximum Humidity 81    
Minimum Humidity 58    
Precipitation  
Precipitation 0.00 in - - ()
Sea Level Pressure  
Sea Level Pressure 30.11 in    
Wind  
Wind Speed 15 mph (NW)    
Max Wind Speed 25 mph    
Max Gust Speed 33 mph    
Visibility 10 miles    
Events Snow    
Averages and records for this station are not official NWS values.
T = Trace of Precipitation, MM = Missing Value Source: NWS Daily Summary

Daily Weather History Graph

Daily Weather History Graph

Search for Another Location

Airport or City:

Trip Planner

Search our weather history database for the weather conditions in past years. The results will help you decide how hot, cold, wet, or windy it might be!

Date:

Astronomy

Jan. 25, 2013 Rise Set
Actual Time 7:47 AM CST 5:22 PM CST
Civil Twilight 7:15 AM CST 5:54 PM CST
Nautical Twilight 6:40 AM CST 6:29 PM CST
Astronomical Twilight 6:06 AM CST 7:03 PM CST
Moon 4:21 PM CST (1/25) 6:27 AM CST (1/25)
Length of Visible Light 10h 38m
Length of Day
9h 35m
Waxing Gibbous, 98% of the Moon is Illuminated
Jan 25
Waxing Gibbous
Jan 26
Full
Feb 3
Last Quarter
Feb 10
New
Feb 17
First Quarter

Hourly Weather History & Observations

Time (CST) Temp. Windchill Dew Point Humidity Pressure Visibility Wind Dir Wind Speed Gust Speed Precip Events Conditions
12:18 AM 13.6 °F -0.7 °F 4.8 °F 68% 30.06 in 10.0 mi SSW 12.7 mph 19.6 mph N/A   Scattered Clouds
12:38 AM 14.5 °F -0.2 °F 5.5 °F 68% 30.06 in 10.0 mi SSW 13.8 mph - N/A   Mostly Cloudy
12:58 AM 14.7 °F -2.5 °F 5.7 °F 68% 30.03 in 10.0 mi SSW 19.6 mph 23.0 mph N/A   Overcast
1:17 AM 14.2 °F -2.3 °F 5.0 °F 67% 30.02 in 10.0 mi SW 17.3 mph 23.0 mph N/A   Scattered Clouds
1:38 AM 13.8 °F -4.1 °F 4.8 °F 67% 30.01 in 10.0 mi SW 20.7 mph 26.5 mph N/A   Clear
1:57 AM 13.6 °F -4.4 °F 4.8 °F 68% 30.00 in 10.0 mi SW 20.7 mph 26.5 mph N/A   Clear
2:17 AM 13.5 °F -3.2 °F 4.6 °F 68% 30.01 in 10.0 mi SW 17.3 mph 26.5 mph N/A   Clear
2:38 AM 12.9 °F -3.4 °F 4.6 °F 70% 30.01 in 10.0 mi SW 16.1 mph - N/A   Clear
2:58 AM 13.1 °F -4.2 °F 4.8 °F 70% 30.01 in 10.0 mi SW 18.4 mph 24.2 mph N/A   Clear
3:18 AM 12.7 °F -3.0 °F 4.8 °F 71% 30.01 in 10.0 mi SW 15.0 mph - N/A   Clear
3:37 AM 12.2 °F -5.3 °F 4.6 °F 72% 30.01 in 10.0 mi SW 18.4 mph - N/A   Scattered Clouds
3:58 AM 13.1 °F -2.6 °F 5.7 °F 72% 29.99 in 10.0 mi SW 15.0 mph 19.6 mph N/A   Mostly Cloudy
4:18 AM 14.0 °F -2.0 °F 6.1 °F 71% 29.99 in 10.0 mi WSW 16.1 mph 20.7 mph N/A   Overcast
4:38 AM 14.2 °F -1.2 °F 6.6 °F 72% 29.99 in 10.0 mi WSW 15.0 mph 20.7 mph N/A   Overcast
4:58 AM 14.9 °F 0.3 °F 7.3 °F 72% 29.99 in 10.0 mi WSW 13.8 mph - N/A   Overcast
5:18 AM 15.3 °F 2.0 °F 7.7 °F 72% 29.98 in 10.0 mi WSW 11.5 mph 19.6 mph N/A   Overcast
5:37 AM 16.3 °F 3.4 °F 8.6 °F 72% 29.97 in 10.0 mi WSW 11.5 mph 19.6 mph N/A   Overcast
5:58 AM 17.1 °F 5.8 °F 9.5 °F 72% 29.98 in 10.0 mi West 9.2 mph - N/A   Overcast
6:17 AM 17.4 °F 5.4 °F 10.2 °F 73% 29.98 in 10.0 mi West 10.4 mph 17.3 mph N/A   Overcast
6:37 AM 18.0 °F 5.4 °F 11.3 °F 75% 29.99 in 10.0 mi West 11.5 mph 18.4 mph N/A   Overcast
6:58 AM 18.5 °F 7.5 °F 12.6 °F 78% 29.99 in 10.0 mi West 9.2 mph - N/A   Overcast
7:38 AM 20.5 °F 5.9 °F 14.9 °F 79% 29.99 in 10.0 mi WNW 17.3 mph 24.2 mph N/A   Overcast
7:58 AM 21.0 °F 8.1 °F 15.6 °F 80% 29.99 in 10.0 mi WNW 13.8 mph 24.2 mph N/A   Overcast
8:18 AM 20.7 °F 7.1 °F 14.9 °F 78% 30.00 in 10.0 mi WNW 15.0 mph 20.7 mph N/A   Overcast
8:37 AM 21.6 °F 6.1 °F 16.0 °F 79% 30.01 in 10.0 mi NW 20.7 mph 26.5 mph N/A   Overcast
8:58 AM 21.7 °F 7.1 °F 16.5 °F 80% 30.01 in 10.0 mi NW 18.4 mph 26.5 mph N/A   Overcast
9:18 AM 21.7 °F 8.0 °F 16.5 °F 80% 30.02 in 10.0 mi NNW 16.1 mph 26.5 mph N/A   Overcast
9:37 AM 21.2 °F 5.6 °F 15.4 °F 78% 30.03 in 10.0 mi NNW 20.7 mph 26.5 mph N/A   Overcast
9:58 AM 19.9 °F 3.5 °F 14.5 °F 80% 30.04 in 5.0 mi NNW 21.9 mph 26.5 mph N/A Snow Light Snow
10:18 AM 18.9 °F 1.0 °F 13.8 °F 81% 30.05 in 3.0 mi NNW 25.3 mph 32.2 mph N/A Snow Light Snow
10:37 AM 18.9 °F 1.4 °F 12.2 °F 75% 30.06 in 5.0 mi NNW 24.2 mph 31.1 mph N/A Snow Light Snow
10:58 AM 17.2 °F 0.4 °F 10.4 °F 75% 30.09 in 7.0 mi NW 20.7 mph 29.9 mph N/A Snow Light Snow
11:18 AM 17.1 °F -0.6 °F 8.2 °F 68% 30.09 in 10.0 mi NNW 23.0 mph 33.4 mph N/A   Scattered Clouds
11:38 AM 15.6 °F -1.8 °F 5.2 °F 63% 30.11 in 10.0 mi NNW 20.7 mph 31.1 mph N/A   Clear
11:57 AM 15.1 °F -2.5 °F 4.1 °F 62% 30.11 in 10.0 mi NNW 20.7 mph 29.9 mph N/A   Clear
12:18 PM 14.4 °F -4.6 °F 2.3 °F 59% 30.12 in 10.0 mi NW 24.2 mph 29.9 mph N/A   Clear
12:38 PM 13.8 °F -4.5 °F 1.6 °F 58% 30.13 in 10.0 mi NNW 21.9 mph 27.6 mph N/A   Clear
12:57 PM 13.3 °F -6.4 °F 1.0 °F 58% 30.13 in 10.0 mi NW 25.3 mph 31.1 mph N/A   Clear
1:18 PM 13.1 °F -3.7 °F 1.2 °F 59% 30.14 in 10.0 mi NNW 17.3 mph 25.3 mph N/A   Clear
1:38 PM 12.6 °F -5.3 °F 0.3 °F 58% 30.14 in 10.0 mi NNW 19.6 mph 26.5 mph N/A   Clear
1:58 PM 12.6 °F -3.8 °F 1.4 °F 61% 30.15 in 10.0 mi NNW 16.1 mph 25.3 mph N/A   Clear
2:18 PM 11.8 °F -6.3 °F 1.0 °F 62% 30.15 in 10.0 mi NNW 19.6 mph 25.3 mph N/A   Clear
2:38 PM 12.0 °F -5.6 °F 1.6 °F 63% 30.15 in 10.0 mi NNW 18.4 mph 23.0 mph N/A   Clear
2:57 PM 11.5 °F -5.8 °F 0.7 °F 62% 30.15 in 10.0 mi NNW 17.3 mph 21.9 mph N/A   Clear
3:17 PM 10.9 °F -5.9 °F 0.5 °F 63% 30.15 in 10.0 mi NW 16.1 mph 19.6 mph N/A   Clear
3:38 PM 10.4 °F -7.7 °F 0.7 °F 65% 30.17 in 10.0 mi NW 18.4 mph - N/A   Clear
3:57 PM 10.2 °F -6.9 °F 0.5 °F 65% 30.17 in 10.0 mi NNW 16.1 mph - N/A   Clear
4:18 PM 9.5 °F -7.2 °F 0.1 °F 66% 30.18 in 10.0 mi NNW 15.0 mph 18.4 mph N/A   Clear
4:38 PM 8.6 °F -7.7 °F -0.6 °F 66% 30.18 in 10.0 mi North 13.8 mph 17.3 mph N/A   Clear
4:58 PM 7.7 °F -7.4 °F -0.8 °F 68% 30.20 in 10.0 mi NNW 11.5 mph - N/A   Clear
5:18 PM 6.8 °F -8.6 °F -1.5 °F 69% 30.20 in 10.0 mi NNW 11.5 mph - N/A   Clear
5:37 PM 6.1 °F -8.7 °F -1.8 °F 70% 30.21 in 10.0 mi NNW 10.4 mph - N/A   Clear
5:58 PM 5.7 °F -10.7 °F -2.2 °F 70% 30.21 in 10.0 mi NNW 12.7 mph - N/A   Clear
6:18 PM 5.4 °F -9.6 °F -2.2 °F 71% 30.21 in 10.0 mi NNW 10.4 mph - N/A   Clear
6:38 PM 5.0 °F -6.9 °F -2.2 °F 72% 30.23 in 10.0 mi NNW 6.9 mph - N/A   Clear
6:58 PM 4.8 °F -11.1 °F -3.1 °F 70% 30.23 in 10.0 mi NNW 11.5 mph 16.1 mph N/A   Clear
7:18 PM 4.1 °F -10.2 °F -3.1 °F 72% 30.24 in 10.0 mi NNW 9.2 mph - N/A   Clear
7:37 PM 4.1 °F -10.2 °F -3.1 °F 72% 30.24 in 10.0 mi NNW 9.2 mph - N/A   Clear
7:57 PM 3.7 °F -10.6 °F -3.5 °F 72% 30.24 in 10.0 mi NNW 9.2 mph - N/A   Clear
8:18 PM 3.4 °F -11.1 °F -3.6 °F 73% 30.24 in 10.0 mi North 9.2 mph - N/A   Clear
8:38 PM 3.2 °F -10.3 °F -3.5 °F 74% 30.26 in 10.0 mi NNW 8.1 mph - N/A   Clear
8:58 PM 2.8 °F -10.7 °F -3.6 °F 74% 30.26 in 10.0 mi North 8.1 mph - N/A   Clear
9:17 PM 2.7 °F -9.7 °F -3.5 °F 76% 30.25 in 10.0 mi North 6.9 mph - N/A   Clear
9:38 PM 2.3 °F -11.4 °F -3.6 °F 76% 30.25 in 10.0 mi North 8.1 mph - N/A   Clear
9:58 PM 1.9 °F -10.6 °F -4.0 °F 76% 30.26 in 10.0 mi North 6.9 mph - N/A   Clear
10:18 PM 1.6 °F - -4.0 °F 77% 30.26 in 10.0 mi Calm Calm - N/A   Clear
10:38 PM 1.2 °F - -4.2 °F 78% 30.27 in 10.0 mi Calm Calm - N/A   Clear
10:58 PM 1.0 °F - -4.4 °F 78% 30.27 in 10.0 mi Calm Calm - N/A   Clear
11:18 PM 0.5 °F - -4.5 °F 79% 30.26 in 10.0 mi Calm Calm - N/A   Clear
11:38 PM 0.5 °F - -4.5 °F 79% 30.27 in 10.0 mi Calm Calm - N/A   Clear
11:58 PM 0.5 °F - -4.5 °F 79% 30.27 in 10.0 mi Calm Calm - N/A   Clear